Time,TemperatureF,DewpointF,PressureIn,WindDirection,WindDirectionDegrees,WindSpeedMPH,WindSpeedGustMPH,Humidity,HourlyPrecipIn,Conditions,Clouds,dailyrainin,SoftwareType,DateUTC
2013-06-06 00:31:00,70.5,69.9,29.73,SW,225,0.0,-999.0,98,-99.99,,,0.00,Acu-Link.com,2013-06-06 04:31:00,
2013-06-06 00:46:00,70.3,69.7,29.72,East,90,0.0,-999.0,98,-99.99,,,0.00,Acu-Link.com,2013-06-06 04:46:00,
2013-06-06 01:01:00,70.2,69.6,29.72,East,90,0.0,-999.0,98,-99.99,,,0.00,Acu-Link.com,2013-06-06 05:01:00,
2013-06-06 01:16:00,70.0,69.4,29.72,SSE,157,0.0,-999.0,98,-99.99,,,0.00,Acu-Link.com,2013-06-06 05:16:00,
2013-06-06 01:31:00,70.0,69.4,29.71,West,270,0.0,-999.0,98,-99.99,,,0.00,Acu-Link.com,2013-06-06 05:31:00,
2013-06-06 01:47:00,70.0,69.4,29.71,East,90,0.0,-999.0,98,-99.99,,,0.00,Acu-Link.com,2013-06-06 05:47:00,
2013-06-06 02:02:00,70.0,69.4,29.71,ESE,112,0.0,-999.0,98,-99.99,,,0.00,Acu-Link.com,2013-06-06 06:02:00,
2013-06-06 02:17:00,69.8,69.2,29.71,ESE,112,0.0,-999.0,98,-99.99,,,0.00,Acu-Link.com,2013-06-06 06:17:00,
2013-06-06 02:32:00,69.8,69.2,29.70,ESE,112,0.0,-999.0,98,-99.99,,,0.00,Acu-Link.com,2013-06-06 06:32:00,
2013-06-06 02:47:00,69.8,69.2,29.70,SW,225,0.0,-999.0,98,-99.99,,,0.00,Acu-Link.com,2013-06-06 06:47:00,
2013-06-06 03:02:00,69.8,69.2,29.70,WSW,247,0.0,-999.0,98,-99.99,,,0.00,Acu-Link.com,2013-06-06 07:02:00,
2013-06-06 03:17:00,69.8,69.2,29.69,SW,225,0.0,-999.0,98,-99.99,,,0.00,Acu-Link.com,2013-06-06 07:17:00,
2013-06-06 03:32:00,69.8,69.2,29.70,SW,225,0.0,-999.0,98,-99.99,,,0.00,Acu-Link.com,2013-06-06 07:32:00,
2013-06-06 03:47:00,69.8,69.2,29.68,SW,225,0.0,-999.0,98,-99.99,,,0.00,Acu-Link.com,2013-06-06 07:47:00,
2013-06-06 04:03:00,69.8,69.2,29.67,SW,225,0.0,-999.0,98,-99.99,,,0.00,Acu-Link.com,2013-06-06 08:03:00,
2013-06-06 04:18:00,69.8,69.2,29.67,SW,225,0.0,-999.0,98,-99.99,,,0.00,Acu-Link.com,2013-06-06 08:18:00,
2013-06-06 04:33:00,69.8,69.2,29.67,East,90,0.0,-999.0,98,-99.99,,,0.00,Acu-Link.com,2013-06-06 08:33:00,
2013-06-06 04:48:00,69.8,69.2,29.67,SW,225,0.0,-999.0,98,-99.99,,,0.04,Acu-Link.com,2013-06-06 08:48:00,
2013-06-06 05:03:00,69.8,69.2,29.66,SW,225,0.0,-999.0,98,-99.99,,,0.39,Acu-Link.com,2013-06-06 09:03:00,
2013-06-06 05:18:00,69.6,69.0,29.67,SSW,202,0.0,-999.0,98,-99.99,,,0.39,Acu-Link.com,2013-06-06 09:18:00,
2013-06-06 05:34:00,69.8,69.2,29.66,SSW,202,0.0,-999.0,98,-99.99,,,0.39,Acu-Link.com,2013-06-06 09:34:00,
2013-06-06 05:49:00,69.8,69.5,29.66,West,270,0.0,-999.0,99,-99.99,,,0.39,Acu-Link.com,2013-06-06 09:49:00,
2013-06-06 06:04:00,70.0,69.7,29.66,SSE,157,0.0,-999.0,99,-99.99,,,0.39,Acu-Link.com,2013-06-06 10:04:00,
2013-06-06 06:19:00,70.2,69.9,29.66,WNW,292,0.0,-999.0,99,-99.99,,,0.39,Acu-Link.com,2013-06-06 10:19:00,
2013-06-06 06:34:00,70.3,70.0,29.66,SSW,202,0.0,-999.0,99,-99.99,,,0.39,Acu-Link.com,2013-06-06 10:34:00,
2013-06-06 06:49:00,70.3,70.0,29.66,South,180,0.0,-999.0,99,-99.99,,,0.39,Acu-Link.com,2013-06-06 10:49:00,
2013-06-06 07:04:00,70.5,70.2,29.67,WSW,247,0.0,-999.0,99,-99.99,,,0.39,Acu-Link.com,2013-06-06 11:04:00,
2013-06-06 07:19:00,70.7,70.4,29.66,NE,45,0.0,-999.0,99,-99.99,,,0.39,Acu-Link.com,2013-06-06 11:19:00,
2013-06-06 07:34:00,70.9,70.6,29.67,West,270,0.0,-999.0,99,-99.99,,,0.39,Acu-Link.com,2013-06-06 11:34:00,
2013-06-06 07:49:00,70.9,70.6,29.67,SW,225,0.0,-999.0,99,-99.99,,,0.39,Acu-Link.com,2013-06-06 11:49:00,
2013-06-06 08:05:00,70.9,70.6,29.66,West,270,0.0,-999.0,99,-99.99,,,0.39,Acu-Link.com,2013-06-06 12:05:00,
2013-06-06 08:20:00,70.9,70.6,29.66,South,180,0.0,-999.0,99,-99.99,,,0.39,Acu-Link.com,2013-06-06 12:20:00,
2013-06-06 08:35:00,70.9,70.6,29.67,West,270,0.0,-999.0,99,-99.99,,,0.41,Acu-Link.com,2013-06-06 12:35:00,
2013-06-06 08:50:00,71.1,70.5,29.66,East,90,0.0,-999.0,98,-99.99,,,0.41,Acu-Link.com,2013-06-06 12:50:00,
2013-06-06 09:05:00,71.8,71.2,29.67,SSE,157,0.0,-999.0,98,-99.99,,,0.41,Acu-Link.com,2013-06-06 13:05:00,
2013-06-06 09:20:00,72.7,71.8,29.67,South,180,0.0,-999.0,97,-99.99,,,0.41,Acu-Link.com,2013-06-06 13:20:00,
2013-06-06 09:35:00,73.4,71.2,29.67,East,90,0.0,-999.0,93,-99.99,,,0.41,Acu-Link.com,2013-06-06 13:35:00,
2013-06-06 09:50:00,74.1,71.6,29.67,SSW,202,0.0,-999.0,92,-99.99,,,0.41,Acu-Link.com,2013-06-06 13:50:00,
2013-06-06 10:05:00,74.7,72.2,29.68,SW,225,0.0,-999.0,92,-99.99,,,0.41,Acu-Link.com,2013-06-06 14:05:00,
2013-06-06 10:21:00,75.0,72.2,29.68,SW,225,0.0,-999.0,91,-99.99,,,0.41,Acu-Link.com,2013-06-06 14:21:00,
2013-06-06 10:36:00,75.4,71.9,29.68,West,270,0.0,-999.0,89,-99.99,,,0.41,Acu-Link.com,2013-06-06 14:36:00,
2013-06-06 11:06:00,75.4,71.9,29.69,WSW,247,0.0,-999.0,89,-99.99,,,0.41,Acu-Link.com,2013-06-06 15:06:00,
2013-06-06 11:36:00,75.7,71.5,29.69,WSW,247,0.0,-999.0,87,-99.99,,,0.41,Acu-Link.com,2013-06-06 15:36:00,
2013-06-06 11:51:00,75.9,72.1,29.69,ESE,112,0.0,-999.0,88,-99.99,,,0.41,Acu-Link.com,2013-06-06 15:51:00,
2013-06-06 12:06:00,76.5,72.3,29.69,WSW,247,0.0,-999.0,87,-99.99,,,0.41,Acu-Link.com,2013-06-06 16:06:00,
2013-06-06 12:21:00,77.4,72.5,29.68,WSW,247,0.0,-999.0,85,-99.99,,,0.41,Acu-Link.com,2013-06-06 16:21:00,
2013-06-06 12:37:00,78.6,73.7,29.68,NW,315,0.0,-999.0,85,-99.99,,,0.41,Acu-Link.com,2013-06-06 16:37:00,
2013-06-06 12:52:00,79.5,72.8,29.67,WSW,247,1.1,-999.0,80,-99.99,,,0.41,Acu-Link.com,2013-06-06 16:52:00,
2013-06-06 13:07:00,79.9,72.8,29.66,ENE,67,0.0,-999.0,79,-99.99,,,0.41,Acu-Link.com,2013-06-06 17:07:00,
2013-06-06 13:22:00,79.7,72.6,29.65,West,270,0.0,-999.0,79,-99.99,,,0.41,Acu-Link.com,2013-06-06 17:22:00,
2013-06-06 13:37:00,79.5,72.8,29.66,SSW,202,0.0,-999.0,80,-99.99,,,0.41,Acu-Link.com,2013-06-06 17:37:00,
2013-06-06 13:52:00,79.0,73.4,29.65,South,180,0.0,-999.0,83,-99.99,,,0.41,Acu-Link.com,2013-06-06 17:52:00,
2013-06-06 14:07:00,78.4,72.1,29.64,South,180,0.0,-999.0,81,-99.99,,,0.41,Acu-Link.com,2013-06-06 18:07:00,
2013-06-06 14:22:00,78.8,72.5,29.63,WSW,247,0.0,-999.0,81,-99.99,,,0.41,Acu-Link.com,2013-06-06 18:22:00,
2013-06-06 14:37:00,78.3,71.6,29.64,SSW,202,1.7,-999.0,80,-99.99,,,0.41,Acu-Link.com,2013-06-06 18:37:00,
2013-06-06 14:53:00,78.4,72.4,29.63,WNW,292,0.0,-999.0,82,-99.99,,,0.41,Acu-Link.com,2013-06-06 18:53:00,
2013-06-06 15:08:00,78.6,72.3,29.62,South,180,0.0,-999.0,81,-99.99,,,0.41,Acu-Link.com,2013-06-06 19:08:00,
2013-06-06 15:23:00,78.1,72.5,29.62,SW,225,1.7,-999.0,83,-99.99,,,0.41,Acu-Link.com,2013-06-06 19:23:00,
2013-06-06 15:38:00,77.0,70.3,29.61,SSW,202,0.0,-999.0,80,-99.99,,,0.41,Acu-Link.com,2013-06-06 19:38:00,
2013-06-06 15:53:00,72.7,69.3,29.62,WSW,247,2.7,-999.0,89,-99.99,,,0.42,Acu-Link.com,2013-06-06 19:53:00,
2013-06-06 16:08:00,72.3,68.9,29.62,ESE,112,0.0,-999.0,89,-99.99,,,0.48,Acu-Link.com,2013-06-06 20:08:00,
2013-06-06 19:13:00,71.2,69.7,29.56,East,90,0.0,-999.0,95,-99.99,,,0.56,Acu-Link.com,2013-06-06 23:13:00,
2013-06-06 19:28:00,71.1,69.6,29.55,ESE,112,0.0,-999.0,95,-99.99,,,0.57,Acu-Link.com,2013-06-06 23:28:00,
2013-06-06 19:43:00,70.9,69.4,29.56,East,90,0.0,-999.0,95,-99.99,,,0.58,Acu-Link.com,2013-06-06 23:43:00,
2013-06-06 19:58:00,70.7,69.5,29.55,WNW,292,0.0,-999.0,96,-99.99,,,0.59,Acu-Link.com,2013-06-06 23:58:00,
2013-06-06 20:13:00,70.7,69.5,29.55,South,180,1.7,-999.0,96,-99.99,,,0.60,Acu-Link.com,2013-06-07 00:13:00,
2013-06-06 20:28:00,70.5,69.3,29.54,NNE,22,2.7,-999.0,96,-99.99,,,0.60,Acu-Link.com,2013-06-07 00:28:00,
2013-06-06 20:43:00,70.3,69.1,29.53,NNE,22,0.0,-999.0,96,-99.99,,,0.61,Acu-Link.com,2013-06-07 00:43:00,
2013-06-06 20:59:00,70.2,69.3,29.52,East,90,1.7,-999.0,97,-99.99,,,0.61,Acu-Link.com,2013-06-07 00:59:00,
2013-06-06 21:14:00,70.2,69.3,29.52,East,90,2.2,-999.0,97,-99.99,,,0.64,Acu-Link.com,2013-06-07 01:14:00,
2013-06-06 21:29:00,70.0,69.1,29.53,NNW,337,2.2,-999.0,97,-99.99,,,0.66,Acu-Link.com,2013-06-07 01:29:00,
2013-06-06 21:44:00,70.0,69.1,29.51,NE,45,1.7,-999.0,97,-99.99,,,0.80,Acu-Link.com,2013-06-07 01:44:00,
2013-06-06 21:59:00,70.0,69.1,29.51,East,90,3.7,-999.0,97,-99.99,,,0.89,Acu-Link.com,2013-06-07 01:59:00,
2013-06-06 22:14:00,70.0,69.4,29.51,East,90,1.7,-999.0,98,-99.99,,,0.94,Acu-Link.com,2013-06-07 02:14:00,
2013-06-06 22:29:00,70.0,69.4,29.52,NE,45,2.2,-999.0,98,-99.99,,,1.05,Acu-Link.com,2013-06-07 02:29:00,
2013-06-06 22:44:00,70.0,69.4,29.51,NNW,337,2.7,-999.0,98,-99.99,,,1.14,Acu-Link.com,2013-06-07 02:44:00,
2013-06-06 22:59:00,70.0,69.4,29.51,East,90,2.2,-999.0,98,-99.99,,,1.17,Acu-Link.com,2013-06-07 02:59:00,
2013-06-06 23:14:00,69.8,69.2,29.50,NNE,22,2.2,-999.0,98,-99.99,,,1.22,Acu-Link.com,2013-06-07 03:14:00,
2013-06-06 23:30:00,69.8,69.2,29.50,East,90,1.7,-999.0,98,-99.99,,,1.35,Acu-Link.com,2013-06-07 03:30:00,
2013-06-06 23:45:00,69.8,69.2,29.50,ESE,112,1.7,-999.0,98,-99.99,,,1.37,Acu-Link.com,2013-06-07 03:45:00,